RH
12 9 8 8 9 10 12 15 15 26 54 68 94 100 88 83 96 51 44 27 26 79 100 100 100 100 100 100 99 100 100 100 100 100 100 91 74 52 39 40 36 34 33 33 31
11 8 8 8 8 9 11 14 15 16 30 68 81 98 100 97 87 99 72 50 31 29 63 100 100 100 100 100 91 90 92 87 91 83 85 86 88 74 74 68 52 39 35 29 28
9 7 7 7 8 8 8 10 13 15 20 39 74 96 100 100 98 97 97 60 54 35 28 83 100 100 100 100 94 87 100 100 98 86 86 82 96 94 84 76 71 59 50 48 56
9 6 6 7 8 8 8 8 11 14 18 26 44 81 80 100 100 86 100 85 67 63 45 29 62 100 100 100 95 85 90 93 100 92 87 78 73 74 69 64 61 60 56 54 53
9 7 6 7 6 7 8 9 9 11 15 24 34 68 100 92 100 100 100 100 94 69 59 61 32 40 91 100 100 100 86 77 82 84 75 74 65 60 59 53 54 57 59 59 50
13 6 6 6 6 7 8 8 9 10 11 14 26 41 85 100 89 100 100 100 99 92 85 84 66 45 29 47 93 100 100 100 84 69 64 66 63 61 55 55 62 58 66 65 59
11 6 6 6 6 8 8 8 9 10 11 12 15 25 54 100 100 95 100 100 92 100 97 93 91 72 74 37 26 45 87 100 100 90 68 62 58 72 63 73 82 79 78 85 72
10 6 6 6 6 7 8 9 10 11 11 13 14 16 41 92 87 97 96 100 100 100 97 100 100 79 82 76 47 24 28 51 92 100 100 93 98 84 89 91 100 95 93 87 82
11 7 6 6 6 7 8 9 11 10 11 12 14 15 25 52 84 94 94 100 100 100 100 79 100 97 73 88 80 42 26 29 36 71 100 100 100 100 100 100 100 100 92 93 92
11 7 6 6 7 7 7 8 9 10 11 11 14 17 22 40 55 81 100 98 100 100 100 99 77 100 92 76 98 70 48 37 35 35 64 100 100 100 100 99 92 89 94 100 93
11 7 7 7 7 7 7 7 8 9 12 12 14 18 25 34 51 64 93 100 93 92 100 100 100 93 100 100 96 94 60 46 40 35 36 49 73 93 100 98 94 95 100 100 99
10 7 7 7 7 7 7 9 10 11 13 16 19 17 23 36 57 55 76 100 100 100 100 100 100 100 100 100 100 98 84 65 46 39 39 44 66 75 94 100 100 97 100 100 88
8 6 6 6 7 7 9 12 14 13 12 18 22 26 22 24 62 99 87 98 100 99 100 100 100 100 100 100 100 100 100 84 63 54 51 58 95 97 100 100 100 100 100 93 79
8 6 6 6 6 8 8 9 9 10 6 15 14 29 33 26 31 64 100 100 93 100 100 100 92 100 95 100 100 100 100 99 78 50 59 72 92 89 100 100 100 100 95 88 96
7 5 5 5 5 5 6 4 4 4 4 6 8 14 33 30 44 49 99 100 100 100 100 96 100 100 100 100 100 100 100 100 82 65 59 78 90 89 100 100 100 98 83 99 97
6 5 5 5 4 4 4 4 3 3 4 6 9 10 10 28 40 45 62 84 99 100 100 98 92 100 86 100 77 99 100 100 100 70 50 68 80 98 100 100 97 84 99 100 100
5 5 4 4 4 3 3 3 3 3 3 4 6 7 6 11 36 43 51 68 88 88 100 100 100 100 88 86 77 87 100 100 100 66 52 77 74 100 100 100 100 100 100 100 100
5 4 4 4 4 3 3 2 2 3 4 4 4 4 6 7 14 37 53 50 73 96 100 100 100 100 100 98 76 99 100 94 100 98 66 84 71 100 100 100 100 100 100 100 100
4 4 4 4 4 3 2 2 3 4 4 5 5 5 4 5 7 14 37 60 58 92 93 100 100 100 100 100 94 73 100 100 90 100 79 85 83 100 100 100 100 100 100 100 94
4 4 4 4 3 2 2 3 3 3 3 3 5 6 6 5 6 8 14 40 58 67 94 100 100 100 100 100 96 60 79 100 84 94 79 80 82 100 100 100 97 100 100 96 86
4 5 4 5 3 2 2 3 3 2 2 2 3 4 6 6 5 6 8 17 54 62 82 92 81 100 100 100 100 96 61 74 80 82 88 79 76 100 100 100 100 93 95 100 97
4 5 5 4 3 2 2 3 3 2 2 2 3 3 5 7 6 5 6 10 23 50 61 92 100 95 100 100 100 100 96 62 87 83 95 76 81 100 100 100 100 100 100 100 97
5 5 6 4 3 2 3 3 2 3 3 3 4 4 4 6 8 7 6 8 12 24 47 77 94 97 82 98 100 100 100 97 61 72 76 75 83 100 100 100 100 100 100 100 100
6 4 6 4 2 2 4 3 3 3 3 3 4 5 5 5 7 8 7 7 10 12 24 45 66 85 85 82 100 100 100 98 58 55 74 77 70 84 100 100 100 100 100 100 100
5 5 5 4 2 3 4 3 3 4 4 4 6 6 6 5 6 9 9 7 8 11 13 26 51 79 99 99 99 92 100 100 99 56 62 82 84 100 100 100 100 100 100 100 100
5 6 4 4 2 4 4 3 3 4 4 4 6 7 6 5 6 10 10 8 8 9 12 14 27 55 69 100 94 90 94 93 99 58 47 71 89 99 100 100 100 99 100 100 100
5 7 4 4 3 4 4 4 4 4 5 6 6 6 6 6 7 9 10 11 9 8 11 13 15 31 59 82 99 72 80 82 99 96 66 47 86 100 100 100 100 100 84 82 84
Wind_Speed
79 67 57 50 42 37 37 39 44 51 54 55 54 48 48 48 42 49 49 54 69 84 89 88 87 85 80 80 78 76 72 70 68 69 69 66 67 63 65 65 67 67 66 67 65
83 72 62 52 45 39 37 41 44 50 57 59 57 56 52 51 49 46 51 51 55 70 87 90 90 88 85 84 81 79 76 77 76 74 71 67 64 62 61 62 64 65 64 64 63
86 74 64 53 45 41 39 41 46 51 56 63 65 63 57 55 57 52 51 53 54 56 73 90 89 90 90 90 87 85 79 82 81 79 74 69 66 65 64 64 66 64 63 63 61
92 76 65 54 48 44 42 42 45 51 57 63 67 68 65 63 60 58 56 51 56 57 56 69 89 93 92 92 89 86 87 86 84 82 79 76 73 71 68 68 68 64 61 62 62
96 81 68 59 53 46 42 43 46 50 57 64 69 71 69 69 62 63 64 57 57 59 58 57 62 81 95 92 90 91 89 88 88 83 83 81 79 72 71 68 67 64 60 60 57
104 82 72 65 56 48 40 39 44 50 54 61 68 74 73 74 75 65 67 65 60 61 62 59 58 56 68 85 93 88 88 88 86 82 82 80 77 73 71 69 67 64 61 59 58
104 87 77 68 59 50 42 38 40 47 53 57 64 70 76 80 82 72 71 75 65 64 65 64 61 57 53 58 71 81 90 89 85 85 81 78 74 75 72 69 69 67 64 64 60
109 95 84 74 64 53 44 41 41 45 50 56 61 67 73 85 83 82 79 77 72 68 64 67 65 60 56 52 53 65 75 80 80 81 84 83 79 78 75 72 71 70 69 68 64
114 101 88 79 69 59 49 42 43 44 50 54 59 65 70 83 82 89 83 79 78 72 69 65 68 65 59 55 53 49 61 67 74 77 78 79 84 80 76 74 72 71 69 66 64
115 104 92 82 73 65 55 47 44 46 49 54 57 65 67 82 87 88 91 87 83 82 74 66 65 66 63 58 52 54 54 62 69 72 73 74 76 76 75 74 71 67 66 67 66
118 107 96 84 75 67 62 55 53 48 47 52 56 63 72 79 86 86 92 92 90 84 82 74 67 60 66 68 65 59 54 56 63 67 67 67 72 71 71 68 67 67 67 67 63
117 107 98 84 76 69 65 62 60 57 49 48 53 61 68 77 83 86 86 96 95 88 87 81 71 69 72 68 65 62 57 53 56 61 64 65 65 65 62 65 65 63 63 61 54
118 110 97 85 77 72 68 67 67 69 63 52 54 60 67 77 86 88 88 93 100 95 91 88 82 81 73 72 66 65 61 58 53 55 60 64 66 63 63 64 61 59 58 54 53
118 109 98 85 77 73 70 67 66 70 65 57 56 60 67 75 79 90 91 90 97 98 101 93 85 81 76 70 70 66 68 66 58 54 58 61 64 61 61 61 57 56 55 53 51
116 107 98 86 78 74 67 61 57 60 52 52 59 59 68 74 79 86 97 98 95 98 97 94 92 91 83 79 78 74 71 71 64 55 56 58 60 60 58 56 57 58 56 53 52
115 106 97 89 81 73 64 56 53 51 44 46 57 65 66 77 82 88 94 101 102 102 100 97 94 96 88 84 80 78 73 70 68 61 51 55 56 58 54 58 59 56 55 54 51
115 107 96 89 82 71 61 54 48 42 40 42 59 68 68 74 85 89 92 95 100 100 97 97 92 91 90 89 85 79 80 71 68 62 45 54 54 55 56 60 58 58 58 55 52
113 106 96 89 81 70 60 51 41 36 33 37 51 60 69 72 81 89 93 92 100 103 106 102 98 94 92 91 87 82 85 80 66 63 53 60 54 55 60 60 61 61 59 57 53
112 105 96 88 78 68 59 47 37 32 31 34 42 50 61 69 75 85 91 92 94 99 99 107 104 102 99 94 92 90 82 84 75 69 62 63 59 63 65 63 61 62 61 58 55
111 103 94 86 76 66 55 42 36 31 30 31 36 46 55 64 73 79 87 93 95 97 102 106 112 103 100 97 93 87 88 87 82 72 65 65 65 63 68 65 63 63 62 58 57
109 101 92 84 73 63 50 41 37 32 29 28 34 44 55 60 66 76 82 90 96 99 102 104 105 112 103 97 93 87 85 81 81 77 70 67 68 66 68 68 67 65 62 60 58
106 98 90 81 71 59 48 42 38 32 30 27 30 40 48 55 60 70 78 84 96 101 101 103 105 106 110 104 100 99 96 88 83 79 74 69 73 70 67 70 69 67 63 62 61
102 94 87 78 68 56 47 42 38 31 28 27 27 35 41 50 55 62 70 79 86 99 103 102 104 107 108 110 108 100 94 90 83 83 80 77 77 73 73 73 71 70 67 62 61
98 91 83 74 64 53 46 42 37 31 27 25 24 30 38 44 52 59 63 72 81 88 99 103 102 103 103 97 101 100 97 94 92 86 83 78 79 78 79 75 73 71 69 64 61
93 87 79 70 62 52 45 41 37 32 26 24 23 29 35 38 45 53 55 62 73 81 86 98 101 102 103 101 99 96 99 101 95 88 87 85 83 88 85 80 76 73 71 69 65
89 84 76 67 59 50 46 39 36 30 25 22 21 26 32 35 41 47 50 54 60 71 78 85 99 103 99 100 101 99 97 99 98 92 91 90 89 90 85 81 78 77 74 71 67
86 81 72 65 56 48 44 39 35 28 22 20 19 24 28 32 37 41 43 45 53 61 72 78 85 99 100 98 100 97 89 90 95 94 86 86 88 93 89 85 81 80 79 76 70
Wind_Direction
349 344 337 326 313 299 283 269 260 254 246 249 245 243 241 238 239 238 237 237 231 228 229 230 230 230 232 233 233 232 233 237 238 240 238 238 238 239 242 245 243 244 246 247 248
348 345 338 326 315 300 282 269 262 254 248 243 245 239 238 240 240 241 239 235 235 232 230 230 231 231 233 233 233 235 237 237 237 240 241 239 239 240 241 243 246 246 248 248 250
348 345 340 329 318 304 289 270 259 254 249 243 241 240 235 238 239 242 237 236 234 234 232 230 231 233 234 234 235 235 236 237 238 240 242 239 239 241 244 248 248 247 247 248 251
347 345 339 332 323 311 295 277 261 250 249 244 238 240 233 233 237 234 235 236 235 232 233 234 233 232 234 236 236 237 238 238 238 240 241 241 242 244 246 249 251 250 250 251 253
347 345 340 334 325 315 300 282 267 253 244 244 240 235 233 230 232 234 234 236 235 234 231 231 233 234 234 234 235 237 238 238 239 240 242 243 245 245 245 247 247 247 247 248 252
350 344 340 336 328 318 304 286 268 258 248 241 240 235 234 232 233 228 232 234 236 233 232 231 230 231 234 235 236 235 235 238 239 241 241 243 243 244 243 242 246 246 246 250 253
349 344 339 336 330 321 309 291 273 259 251 246 240 237 232 233 232 226 228 233 231 233 232 231 231 231 231 232 233 235 235 236 237 239 239 238 242 241 241 240 244 246 248 251 253
349 344 339 336 330 322 311 296 276 262 252 246 241 236 232 233 232 230 225 228 230 230 232 231 231 231 232 233 235 232 233 233 233 233 236 239 240 242 241 242 244 247 249 251 255
349 344 339 335 329 321 314 300 282 266 255 244 242 237 230 234 232 230 227 224 226 230 229 232 231 232 233 233 235 236 230 229 230 230 231 233 236 238 240 243 243 246 249 250 251
348 343 339 334 327 321 312 302 287 274 258 249 237 238 232 233 232 229 227 225 223 226 230 227 231 230 233 234 236 232 228 226 228 229 229 231 233 236 240 241 243 245 245 245 249
347 342 338 332 325 319 313 306 294 281 264 249 241 232 234 233 234 232 227 225 225 223 224 229 227 230 228 227 229 231 232 229 229 229 229 231 235 236 238 240 239 239 240 242 243
346 341 337 331 325 319 313 305 294 285 269 254 241 236 229 234 236 234 229 225 226 222 221 224 224 227 230 227 229 232 233 234 231 227 227 229 231 232 233 235 237 238 238 237 237
344 340 335 330 325 318 311 301 292 284 276 258 243 236 232 228 230 231 232 225 224 224 223 219 221 222 227 226 227 230 233 232 232 228 226 226 227 228 229 233 234 235 233 233 234
344 338 334 330 325 317 308 297 287 279 278 265 250 232 231 229 228 229 228 228 224 226 223 224 221 225 223 228 226 227 231 233 231 230 224 224 224 226 229 232 232 231 230 229 232
342 338 334 329 323 319 312 304 292 283 281 265 257 241 228 230 227 229 225 224 224 223 226 223 224 220 220 221 225 221 226 230 230 231 226 223 223 224 226 229 228 227 226 227 231
340 338 334 328 326 323 316 307 297 284 275 251 241 239 229 223 224 226 227 226 224 224 224 227 222 223 219 221 224 224 224 226 229 228 228 225 222 223 220 225 226 226 225 228 232
339 337 333 329 328 325 318 310 298 282 265 244 236 234 229 220 220 222 224 226 227 226 225 224 226 224 224 222 222 225 226 224 228 229 227 224 219 219 218 224 226 224 227 230 233
338 336 333 331 329 326 320 312 299 282 268 247 237 235 230 225 218 218 222 221 224 224 221 220 220 223 226 226 222 223 227 226 222 227 223 221 210 217 222 225 228 228 230 231 232
337 335 333 333 330 326 321 312 300 287 270 252 244 238 233 227 223 218 218 220 221 224 224 221 220 222 224 224 222 221 223 225 220 220 219 217 205 217 226 225 230 231 231 232 232
337 335 333 333 330 327 322 314 305 294 275 255 240 235 233 229 224 221 218 217 218 221 223 221 219 219 221 222 225 222 221 221 220 216 218 217 207 216 226 227 230 232 233 234 235
336 334 334 333 331 328 325 318 311 301 285 264 244 232 231 229 227 224 221 216 216 219 221 222 223 217 219 222 222 224 224 223 222 217 214 217 208 216 226 229 230 233 234 237 237
335 335 334 333 332 329 326 322 316 309 294 274 248 236 230 231 228 226 222 219 215 217 220 221 223 223 219 220 222 226 226 221 219 219 217 215 212 217 226 229 232 233 235 237 238
334 334 334 334 333 330 329 325 319 310 293 277 255 239 229 226 225 228 225 221 218 216 218 220 221 222 223 219 221 225 226 224 222 222 216 213 211 216 227 229 231 234 236 239 240
334 334 335 334 333 331 331 326 320 308 289 278 256 237 227 222 223 225 226 223 220 218 218 218 221 223 225 223 220 222 225 227 227 220 220 214 215 218 227 230 233 235 236 239 242
334 334 335 334 334 331 333 326 320 306 290 275 249 237 228 220 221 224 223 225 223 221 219 217 219 222 223 224 223 221 220 219 222 219 219 219 215 223 225 230 231 234 236 238 242
334 335 336 335 334 332 332 329 320 306 293 277 254 237 230 222 216 219 221 223 223 223 219 218 218 220 222 223 225 222 220 221 222 219 218 219 216 223 225 229 232 233 236 239 243
334 336 337 335 334 333 332 328 320 307 291 274 248 231 222 216 214 215 217 221 223 221 219 218 216 219 220 221 224 224 223 223 220 222 220 219 221 224 225 228 231 234 236 239 242